Location: Mount Cross
(36.6390°N, 79.4878°W)
Time: 21:13:48
(UTC+00:00)

Transit 4A - All Passes

Search period start: 21 March 2023 00:00
Search period end: 31 March 2023 00:00
Orbit: 868 x 976 km, 66.8° (Epoch: 21 March)

Date Brightness Start Highest point End Pass type
(mag) Time Alt. Az. Time Alt. Az. Time Alt. Az.
21 Mar - 12:10:30 10° SSW 12:16:17 82° ESE 12:22:10 10° NNE daylight
21 Mar - 13:59:49 10° W 14:03:21 16° NW 14:06:56 10° N daylight
21 Mar - 19:32:38 10° NNE 19:33:46 10° NE 19:34:54 10° NE daylight
21 Mar - 21:15:21 10° NNW 21:21:25 57° ENE 21:27:36 10° SE daylight
21 Mar - 23:02:48 10° WNW 23:07:18 21° WSW 23:11:51 10° SSW daylight
22 Mar - 10:36:30 10° SE 10:39:49 16° ESE 10:43:09 10° ENE visible
22 Mar - 12:19:43 10° SW 12:25:28 66° WNW 12:31:20 10° NNE daylight
22 Mar - 14:11:18 10° WNW 14:12:59 11° NW 14:14:41 10° NNW daylight
22 Mar - 19:39:58 10° N 19:43:26 15° NE 19:46:56 10° E daylight
22 Mar - 21:24:27 10° NNW 21:30:39 85° ENE 21:36:59 10° SSE daylight
22 Mar - 23:13:29 10° WNW 23:16:13 13° WSW 23:18:58 10° SW daylight
23 Mar - 10:44:07 10° SSE 10:48:44 25° ESE 10:53:25 10° NE visible
23 Mar - 12:29:14 10° SW 12:34:45 43° WNW 12:40:21 10° NNE daylight
23 Mar - 19:48:22 10° N 19:53:00 22° NE 19:57:41 10° E daylight
23 Mar - 21:33:42 10° NNW 21:39:49 66° WSW 21:46:03 10° SSE daylight
24 Mar - 10:52:25 10° S 10:57:44 39° ESE 11:03:07 10° NE visible
24 Mar - 12:39:05 10° WSW 12:44:06 30° NW 12:49:13 10° N daylight
24 Mar - 19:57:05 10° N 20:02:27 31° NE 20:07:57 10° ESE daylight
24 Mar - 21:43:06 10° NW 21:48:54 43° WSW 21:54:49 10° S daylight
25 Mar - 11:01:06 10° SSW 11:06:47 62° ESE 11:12:34 10° NE daylight
25 Mar - 12:49:18 10° W 12:53:34 21° NW 12:57:54 10° N daylight
25 Mar - 20:05:57 10° NNW 20:11:50 44° ENE 20:17:49 10° SE daylight
25 Mar - 21:52:46 10° NW 21:57:56 28° WSW 22:03:10 10° SSW daylight
26 Mar - 09:29:02 10° ESE 09:30:30 11° E 09:31:57 10° E visible
26 Mar - 11:10:07 10° SSW 11:15:55 87° WNW 11:21:50 10° NNE daylight
26 Mar - 13:00:03 10° WNW 13:03:08 14° NW 13:06:16 10° NNW daylight
26 Mar - 18:31:20 10° NNE 18:33:36 12° NE 18:35:54 10° ENE daylight
26 Mar - 20:14:57 10° NNW 20:21:07 66° ENE 20:27:23 10° SE daylight
26 Mar - 22:02:50 10° WNW 22:06:53 18° WSW 22:10:59 10° SW daylight
27 Mar - 09:35:31 10° SSE 09:39:22 19° ESE 09:43:16 10° ENE visible
27 Mar - 11:19:26 10° SW 11:25:08 57° WNW 11:30:57 10° NNE daylight
27 Mar - 18:39:18 10° N 18:43:14 17° NE 18:47:13 10° E daylight
27 Mar - 20:24:06 10° NNW 20:30:19 85° WSW 20:36:39 10° SSE daylight
27 Mar - 22:14:14 10° W 22:15:46 11° W 22:17:19 10° WSW daylight
28 Mar - 09:43:25 10° SSE 09:48:19 29° ESE 09:53:16 10° NE visible
28 Mar - 11:29:05 10° WSW 11:34:26 38° NW 11:39:55 10° NNE daylight
28 Mar - 18:47:50 10° N 18:52:46 24° NE 18:57:46 10° ESE daylight
28 Mar - 20:33:24 10° NW 20:39:28 57° WSW 20:45:37 10° S daylight
29 Mar - 09:51:50 10° S 09:57:19 46° ESE 10:02:53 10° NE visible
29 Mar - 11:39:01 10° WSW 11:43:50 26° NW 11:48:44 10° N daylight
29 Mar - 18:56:36 10° N 19:02:12 35° NE 19:07:53 10° ESE daylight
29 Mar - 20:42:53 10° NW 20:48:31 37° WSW 20:54:15 10° S daylight
30 Mar - 10:00:39 10° SSW 10:06:24 72° ESE 10:12:16 10° NNE visible
30 Mar - 11:49:23 10° W 11:53:20 18° NW 11:57:20 10° N daylight
30 Mar - 19:05:31 10° NNW 19:11:32 50° ENE 19:17:39 10° SE daylight
30 Mar - 20:52:38 10° NW 20:57:31 25° WSW 21:02:28 10° SSW daylight
